Home   Weather   Vöcklabruck   Past weeks

Flag for Austria Past Weather in Vöcklabruck, Upper Austria, Austria — Yesterday and Last 2 Weeks

Now
30 °F

Chilly.


Feels Like: 30 °F
Forecast: 24 / 35 °F
Wind: 1 mph from Northeast

Location: Kremsmuenster

Current Time: Dec 3, 2016 at 3:43:08 am

Latest Report: Dec 3, 2016 at 3:00 am


Visibility: N/A

Pressure: 30.27 "Hg

Humidity: 93%

Dew Point: 28 °F

Location of VöcklabruckLocation

Past Weather in Vöcklabruck — Graph

°F

Vöcklabruck Temperature Yesterday

Maximum temperature yesterday: 42 °F (at 11:00 am)
Minimum temperature yesterday: 35 °F (at 11:00 pm)
Average temperature yesterday: 39 °F

High & Low Weather Summary for the Past Weeks

 TemperatureHumidityPressure
High53 °F (Nov 22, 2:00 pm)99% (Nov 21, 11:00 am)30.61 "Hg (Nov 21, 11:00 am)
Low23 °F (Nov 30, 7:00 am)45% (Dec 1, 7:00 pm)29.78 "Hg (Nov 18, 3:00 pm)
Average39 °F85%30.12 "Hg
* Reported Nov 18 2:00 am — Dec 3 2:00 am, Vöcklabruck, Weather by CustomWeather, © 2016

Note: Actual official high and low records may vary slightly from our data, if they occured in-between our weather recording intervals... More about our weather records

Advertising

Vöcklabruck Weather History for the Previous 24 Hours

Scroll right to see more
 ConditionsComfort  
Time TempWeatherWind HumidityBarometerVisibility
2:00 am
Sat, Dec 3
31 °FChilly.1 mph91%30.26 "HgN/A
1:00 am33 °FChilly.2 mph89%30.26 "HgN/A
12:00 am34 °FChilly.1 mph86%30.24 "HgN/A
11:00 pm
Fri, Dec 2
35 °FChilly.2 mph84%30.24 "HgN/A
10:00 pm36 °FChilly.3 mph82%30.23 "HgN/A
9:00 pm37 °FChilly.2 mph82%30.23 "HgN/A
8:00 pm37 °FChilly.3 mph85%30.22 "HgN/A
7:00 pm38 °FOvercast.3 mph82%30.21 "Hg16 mi
6:00 pm38 °FChilly.2 mph84%30.19 "HgN/A
5:00 pm38 °FChilly.5 mph86%30.17 "HgN/A
4:00 pm39 °FLight rain. Overcast.5 mph88%30.16 "Hg2 mi
3:00 pm39 °FFog.6 mph89%30.15 "HgN/A
2:00 pm40 °FFog.7 mph87%30.12 "HgN/A
12:00 pm40 °FSprinkles. Cloudy.10 mph81%30.10 "HgN/A
11:00 am42 °FQuite cool.13 mph72%30.07 "HgN/A
10:00 am41 °FOvercast.10 mph73%30.07 "Hg4 mi
9:00 am40 °FChilly.13 mph77%30.08 "HgN/A
8:00 am39 °FChilly.12 mph78%30.07 "HgN/A
7:00 am40 °FOvercast.13 mph70%30.05 "Hg6 mi
6:00 am41 °FQuite cool.13 mph67%30.05 "HgN/A
5:00 am41 °FQuite cool.12 mph68%30.07 "HgN/A
4:00 am41 °FQuite cool.12 mph68%30.07 "HgN/A
3:00 am40 °FQuite cool.10 mph67%30.10 "HgN/A
Weather by CustomWeather, © 2016

See weather overviewHow to use our weather pages